Zahran, Saudi Arabia

11:27 PM AST on December 02, 2016 (GMT +0300)
Zahran

Weather History for 40416 - December, 2013

Change the Weather History Date:

Thursday, December 12, 2013

  Actual Average Record
Temperature  
Mean Temperature 68 °F -  
Max Temperature 78 °F - - ()
Min Temperature 59 °F - - ()
Cooling Degree Days 4    
Growing Degree Days 18 (Base 50)    
Moisture  
Dew Point 59 °F    
Average Humidity 68    
Maximum Humidity 88    
Minimum Humidity 48    
Precipitation  
Precipitation 0.00 in - - ()
Sea Level Pressure  
Sea Level Pressure 29.92 in    
Wind  
Wind Speed 9 mph ()    
Max Wind Speed 17 mph    
Max Gust Speed -    
Visibility 5.6 miles    
Events      
T = Trace of Precipitation, MM = Missing Value Source: Averaged Metar Reports

Daily Weather History Graph

Daily Weather History Graph

Search for Another Location

Airport or City:

Trip Planner

Search our weather history database for the weather conditions in past years. The results will help you decide how hot, cold, wet, or windy it might be!

Date:

Astronomy

Dec. 12, 2013 Rise Set
Actual Time 6:17 AM AST 4:48 PM AST
Civil Twilight 5:52 AM AST 5:14 PM AST
Nautical Twilight 5:23 AM AST 5:42 PM AST
Astronomical Twilight 4:55 AM AST 6:11 PM AST
Moon 1:23 PM AST (12/12) 1:38 AM AST (12/12)
Length of Visible Light 11h 21m
Length of Day
10h 31m
Waxing Gibbous, 77% of the Moon is Illuminated
Dec 12
Waxing Gibbous
Dec 17
Full
Dec 25
Last Quarter
Jan 1
New
Jan 8
First Quarter

Hourly Weather History & Observations

Time (AST) Temp. Dew Point Humidity Pressure Visibility Wind Dir Wind Speed Gust Speed Precip Events Conditions
12:00 AM 63 °F 55 °F 69% 29.94 in 6 mi SE 8.1 mph - -  
12:00 AM 62.6 °F 55.4 °F 77% 29.92 in - SE 8.1 mph - N/A   Clear
1:00 AM 64.4 °F 53.6 °F 68% 29.92 in - SE 10.4 mph - N/A   Clear
2:00 AM 62.6 °F 55.4 °F 77% 29.92 in - SSE 9.2 mph - N/A   Clear
3:00 AM 63 °F 57 °F 76% 29.91 in 6 mi SE 9.2 mph - -  
3:00 AM 62.6 °F 57.2 °F 82% 29.92 in - SE 9.2 mph - N/A   Clear
4:00 AM 62.6 °F 57.2 °F 82% 29.92 in - SE 8.1 mph - N/A   Clear
5:00 AM 62.6 °F 57.2 °F 82% 29.89 in - SE 10.4 mph - N/A   Clear
6:00 AM 61 °F 57 °F 83% 29.94 in 6 mi SSW 5.8 mph - -   Partly Cloudy
6:00 AM 60.8 °F 57.2 °F 88% 29.92 in - SSW 5.8 mph - N/A   Clear
7:00 AM 62.6 °F 59.0 °F 88% 29.95 in 6.2 mi South 6.9 mph - N/A   Scattered Clouds
8:00 AM 64.4 °F 59.0 °F 83% 29.95 in 6.2 mi SSW 6.9 mph - N/A   Mostly Cloudy
9:00 AM 68 °F 59 °F 65% 29.98 in 5 mi SSW 10.4 mph - -   Haze
9:00 AM 68.0 °F 60.8 °F 78% 29.98 in 5.0 mi SSW 10.4 mph - N/A   Scattered Clouds
10:00 AM 71.6 °F 57.2 °F 60% 29.98 in 5.0 mi South 11.5 mph - N/A   Partly Cloudy
11:00 AM 71.6 °F 62.6 °F 73% 29.95 in 5.0 mi South 10.4 mph - N/A   Scattered Clouds
12:00 PM 73 °F 64 °F 67% 29.93 in 5 mi SE 16.1 mph - -   Haze
12:00 PM 73.4 °F 64.4 °F 73% 29.92 in 5.0 mi SE 16.1 mph - N/A   Scattered Clouds
1:00 PM 73.4 °F 59.0 °F 61% 29.89 in 5.6 mi SSE 17.3 mph - N/A   Unknown
2:00 PM 77.0 °F 59.0 °F 54% 29.86 in - SSE 17.3 mph - N/A   Clear
3:00 PM 77 °F 61 °F 48% 29.88 in 6 mi ESE 13.8 mph - -  
3:00 PM 77.0 °F 60.8 °F 57% 29.86 in - ESE 13.8 mph - N/A   Clear
4:00 PM 77.0 °F 57.2 °F 50% 29.86 in - SE 11.5 mph - N/A   Clear
5:00 PM 75.2 °F 57.2 °F 53% 29.89 in 5.0 mi SE 10.4 mph - N/A   Unknown
6:00 PM 73 °F 59 °F 52% 29.90 in 6 mi SE 10.4 mph - -   Partly Cloudy
6:00 PM 73.4 °F 59.0 °F 61% 29.89 in - SE 10.4 mph - N/A   Clear
7:00 PM 73.4 °F 59.0 °F 61% 29.89 in - SE 13.8 mph - N/A   Clear
8:00 PM 73.4 °F 59.0 °F 61% 29.92 in - SE 16.1 mph - N/A   Clear
9:00 PM 72 °F 59 °F 55% 29.91 in 6 mi SE 15.0 mph - -  
9:00 PM 71.6 °F 59.0 °F 64% 29.92 in - SE 15.0 mph - N/A   Clear
10:00 PM 71.6 °F 59.0 °F 64% 29.92 in - SE 9.2 mph - N/A   Clear
11:00 PM 69.8 °F 59.0 °F 68% 29.89 in - SE 13.8 mph - N/A   Clear